Wind_Speed
114 111 108 107 107 109 110 110 109 108 107 107 107 108 110 111 112 112 111 109 108 108 108 108 108 108 107 107 107 106 106 105 105 104 104 105 106 107 107 106 106 105 105 104 103 104 104 105 106 106 107 108 109 110 112 113 115 116 117 119 120 121 122 123 124 126 127 127 127 128 129 130 131 132 133 133 133 132 131 129 127 125 124 122 120
120 119 118 117 117 118 120 119 116 114 113 112 112 113 114 115 116 116 115 113 112 112 112 113 113 113 113 113 112 112 111 111 110 110 109 109 109 110 110 111 111 112 112 111 111 111 111 111 112 112 113 114 115 116 117 119 120 121 122 123 124 125 125 126 126 127 128 128 129 129 129 129 130 131 131 130 130 129 127 126 124 122 121 119 117
123 124 124 124 124 125 127 126 121 117 115 116 116 117 118 119 120 119 118 117 116 116 116 117 117 117 117 117 117 117 117 116 116 115 114 114 114 113 114 114 115 116 117 118 118 117 117 117 118 118 119 119 119 120 121 123 124 125 126 127 128 128 129 129 128 128 129 129 129 129 129 129 128 128 127 127 126 124 122 121 119 117 115 114 113
127 125 125 125 126 126 125 122 119 116 115 116 117 119 120 121 122 121 121 121 120 120 120 121 121 121 121 122 122 122 122 121 120 120 120 119 118 118 118 118 118 119 121 123 123 123 122 123 123 124 125 125 125 126 126 127 128 129 130 131 131 132 132 131 130 129 128 127 127 127 126 126 125 124 123 122 121 119 116 114 113 112 111 110 109
123 120 117 116 116 116 116 114 113 112 113 114 116 118 120 121 122 123 123 123 123 123 123 123 123 123 123 124 125 126 125 124 124 124 124 124 124 123 123 122 122 123 124 126 127 127 127 127 128 128 129 129 130 131 131 132 132 133 133 134 134 134 133 131 129 127 125 124 124 124 123 122 120 119 118 116 114 113 111 110 109 109 108 107 106
112 109 106 103 102 104 105 107 108 108 109 110 111 114 116 118 119 119 120 121 121 121 120 120 120 120 122 124 125 127 128 127 127 126 126 127 127 127 127 127 127 127 127 128 130 130 130 130 130 130 131 132 132 133 133 134 134 135 135 134 134 133 131 129 126 124 122 121 121 120 119 117 115 114 112 110 110 109 108 106 105 105 103 102 100
104 101 98 95 94 95 97 99 101 102 103 104 105 106 109 112 113 113 113 113 114 114 114 115 115 116 118 120 122 125 127 128 127 127 127 128 128 128 129 129 130 130 130 130 131 132 132 131 131 131 132 132 132 132 132 132 132 132 132 132 131 129 127 126 123 121 120 119 118 117 115 113 112 110 108 107 107 105 103 101 99 98 97 95 93
100 98 95 91 90 91 92 94 95 96 98 100 101 102 103 104 106 107 108 108 107 107 107 108 110 112 113 115 118 121 123 125 125 125 125 126 127 127 128 129 129 129 129 129 130 131 131 130 130 130 130 130 129 129 128 128 128 128 128 128 127 126 125 124 122 120 118 116 114 112 111 109 108 107 106 104 102 99 97 94 92 90 89 88 88
100 99 97 94 91 91 92 93 94 95 96 98 98 99 99 99 100 100 100 101 102 102 103 104 106 107 109 110 112 115 118 120 121 122 122 122 123 124 125 126 126 126 125 125 126 126 125 125 126 126 125 125 124 124 124 124 123 124 124 124 124 124 124 122 120 117 114 112 109 107 105 104 103 103 101 100 97 93 92 90 87 85 84 84 85
102 101 101 100 97 95 94 94 94 95 97 98 99 98 98 98 98 97 97 97 99 100 101 102 103 104 105 106 108 109 112 114 116 117 118 118 118 119 119 120 120 120 120 119 119 118 118 119 119 119 118 118 118 118 119 119 120 120 120 120 121 122 121 119 117 114 110 107 105 102 100 99 99 99 97 95 92 90 88 87 85 84 83 84 85
104 104 104 103 103 102 101 99 98 98 98 100 101 101 101 101 100 100 99 99 100 102 102 103 103 103 104 105 105 107 109 110 112 113 114 114 113 113 114 114 114 114 113 113 113 113 113 113 114 114 114 113 113 113 114 114 115 116 117 118 118 118 117 116 114 111 107 104 101 99 97 97 97 97 95 92 90 88 87 87 86 85 84 85 86
105 105 106 106 106 105 105 105 104 103 102 103 104 104 104 104 105 105 105 104 104 105 105 106 107 106 104 104 104 106 109 111 112 112 112 112 112 111 111 111 111 110 110 110 110 110 110 111 111 112 112 112 112 112 111 111 112 113 114 114 114 114 114 112 110 107 105 102 100 98 97 97 96 96 94 91 90 89 88 88 88 87 87 86 87
105 106 106 107 108 107 107 107 107 106 106 106 107 107 107 107 108 108 109 109 108 108 108 109 110 109 107 104 104 106 108 109 110 110 111 112 112 111 110 110 110 109 109 109 109 109 109 109 110 110 110 110 110 110 111 111 111 111 110 110 110 110 110 109 107 105 104 102 101 100 99 98 96 95 93 91 91 90 90 90 91 90 89 89 89
106 106 106 107 108 108 109 109 109 109 108 107 107 108 108 109 109 110 110 111 111 111 111 111 111 111 109 107 106 107 108 108 107 107 108 109 110 110 109 108 108 107 107 107 107 107 107 108 108 108 108 108 107 108 108 109 108 108 107 107 108 108 108 107 106 105 104 102 102 101 101 99 97 95 93 92 92 92 92 93 93 93 91 90 91
107 107 106 106 107 108 109 110 110 111 111 109 108 108 108 109 110 111 111 111 111 112 113 113 113 113 113 111 110 109 108 107 107 107 107 108 109 110 110 109 108 107 107 106 105 105 105 105 106 106 107 107 106 107 107 107 105 104 104 105 107 108 107 107 106 104 103 103 102 102 102 100 98 95 93 93 93 94 95 96 96 95 92 91 92
108 107 107 106 106 107 108 109 110 111 112 112 110 108 108 108 109 110 110 111 111 112 113 114 114 115 115 115 114 113 111 110 109 109 109 109 110 111 111 110 109 109 108 107 105 104 104 105 106 107 106 106 106 106 106 105 103 102 103 105 106 107 107 107 106 105 104 103 103 103 103 101 98 96 95 95 96 97 98 98 98 96 93 92 92
107 107 107 107 107 107 107 107 108 110 111 112 112 110 109 108 108 109 109 110 111 112 112 113 114 115 115 115 115 114 114 113 112 112 112 112 112 111 111 111 111 110 109 107 106 106 108 109 110 109 108 106 106 105 104 102 101 102 104 105 106 107 107 107 106 105 105 105 105 104 103 101 99 97 97 98 99 99 99 99 99 97 95 93 92
107 107 107 107 108 108 109 108 108 109 110 111 112 112 111 109 108 109 109 109 110 111 111 112 113 113 114 114 114 114 113 113 113 113 113 114 113 112 112 112 111 110 108 107 107 109 111 113 113 112 109 107 106 105 103 102 101 102 104 105 106 107 107 107 106 106 106 107 106 105 103 101 100 99 100 101 101 101 100 99 98 97 95 93 91
106 106 106 106 107 108 109 109 109 110 110 111 112 112 112 111 111 110 110 110 110 110 110 110 111 111 112 113 113 113 113 112 112 112 113 113 113 112 112 112 111 109 107 107 109 111 113 114 114 112 110 108 106 105 104 102 102 103 104 105 106 107 107 107 106 107 108 108 107 105 103 102 101 101 102 103 103 102 100 99 97 96 95 93 90
105 105 105 106 107 108 109 109 110 110 111 112 112 112 112 112 112 112 111 110 110 110 109 109 108 109 110 110 111 111 111 112 112 112 112 112 111 111 111 111 109 107 107 108 110 111 112 112 112 111 110 109 108 107 105 104 104 104 105 106 107 107 107 107 107 108 109 108 107 105 104 103 102 103 104 104 103 102 100 98 96 95 93 91 89
105 105 105 105 106 107 108 109 109 110 111 112 113 113 113 113 113 113 112 112 111 111 110 108 107 107 108 109 109 110 109 109 110 110 110 111 110 109 109 110 108 106 106 107 108 109 110 110 110 109 109 109 109 108 107 106 105 105 106 107 107 108 107 107 107 109 109 108 107 105 105 104 103 104 105 104 103 101 98 96 94 93 92 91 91
105 104 105 105 105 106 107 108 109 109 111 112 113 113 114 114 114 113 113 113 112 112 111 110 109 108 108 109 109 108 108 108 108 108 109 109 108 108 108 109 107 105 104 104 106 107 108 109 109 109 109 110 110 109 108 106 106 106 107 108 108 108 108 108 108 108 108 107 106 106 105 104 103 104 104 102 100 98 96 94 93 93 93 93 92
106 105 105 105 106 106 106 107 108 108 109 110 112 113 114 114 114 114 113 113 113 113 113 112 111 110 109 109 109 109 109 109 109 109 109 108 108 107 107 108 108 105 104 104 104 106 108 109 110 110 111 111 110 110 109 107 106 106 107 108 108 107 107 108 107 107 107 106 105 105 104 103 102 101 101 99 97 96 94 93 94 94 95 93 93
105 106 106 106 106 106 106 107 107 107 108 110 111 111 112 113 114 113 113 113 113 113 114 114 113 111 110 110 111 111 111 111 110 110 110 109 109 108 107 108 109 107 106 105 105 106 109 110 112 112 112 111 111 110 110 109 107 107 107 107 107 107 107 107 106 106 105 105 104 104 103 101 100 99 98 97 96 95 95 95 95 96 95 94 94
102 103 104 105 106 106 105 105 106 107 108 109 110 110 111 112 113 112 112 112 113 113 114 114 113 112 112 112 113 113 113 112 112 112 111 111 111 109 108 108 110 109 108 107 106 107 109 111 113 114 113 112 112 112 111 109 107 106 106 107 107 107 106 105 105 104 104 103 103 102 101 99 98 98 97 97 97 98 97 96 96 95 94 94 94
97 99 100 102 103 104 103 103 104 107 108 109 110 109 110 110 111 111 111 112 112 113 113 113 113 113 113 113 114 114 114 113 113 113 113 113 113 111 109 109 110 111 110 109 108 109 110 112 114 114 114 114 113 113 112 109 107 106 106 107 107 106 105 104 104 103 102 101 101 100 99 99 98 98 99 99 100 100 98 97 96 96 95 94 93
95 95 97 98 99 101 101 101 102 105 108 108 108 108 108 109 110 109 110 111 112 112 112 112 112 112 113 113 114 114 114 113 113 113 114 114 114 113 111 109 110 111 111 110 109 109 110 112 114 114 114 114 113 113 111 108 106 105 106 107 106 105 105 104 103 102 101 100 99 99 99 99 99 100 101 102 103 102 99 98 97 96 94 92 89
93 93 94 95 96 97 98 98 100 102 105 105 105 105 106 107 108 108 109 110 111 111 111 111 111 112 112 113 113 113 113 113 113 113 114 115 115 114 112 110 109 109 109 110 110 110 110 111 113 113 113 113 113 113 110 107 105 105 105 106 106 105 104 103 102 100 100 99 99 99 100 100 101 102 103 104 104 102 100 97 95 92 89 87 84
90 90 91 92 93 94 95 96 98 100 102 101 100 101 102 104 105 106 108 109 110 110 110 110 110 111 111 111 112 112 112 112 113 113 113 113 113 113 111 110 108 107 107 108 109 109 109 110 111 112 112 113 112 111 109 107 105 105 105 105 105 105 103 102 101 100 100 100 99 100 100 101 102 103 103 103 103 101 97 94 90 86 84 82 81
87 86 86 88 90 91 91 92 94 98 99 97 95 96 98 100 101 102 104 107 109 110 109 109 109 110 110 110 110 110 111 111 112 112 112 112 112 112 111 110 108 107 106 106 107 108 108 109 109 110 111 112 112 111 109 107 106 105 105 106 105 104 103 101 101 101 100 100 99 99 100 100 101 101 101 100 98 96 92 89 85 82 81 80 79
84 82 83 84 86 87 87 87 90 94 97 96 93 91 93 96 98 99 101 104 106 107 107 107 108 108 108 108 109 110 110 111 111 112 112 111 112 112 111 110 109 107 106 105 106 107 108 108 109 110 110 111 111 111 110 109 107 106 105 105 104 103 102 101 101 101 100 99 99 99 99 99 99 99 98 96 93 91 88 85 82 80 79 78 78
81 80 80 82 83 84 84 84 86 89 92 94 93 90 89 91 94 96 98 100 102 104 105 105 106 106 107 107 109 110 111 111 111 112 112 112 112 112 112 111 110 108 107 106 106 107 107 107 108 109 110 111 111 112 111 110 109 107 105 104 103 102 102 102 102 101 101 100 100 100 99 99 98 96 94 92 90 87 85 83 80 80 79 78 78
80 78 79 80 81 82 83 83 84 86 88 92 93 91 87 87 90 93 95 96 97 99 101 102 103 104 105 106 108 110 111 111 111 112 113 112 113 113 112 111 110 109 108 107 107 107 107 107 108 109 110 111 112 112 112 111 110 109 107 106 104 103 103 103 103 102 102 101 100 100 99 97 95 94 91 90 88 86 84 82 80 79 79 78 77
81 79 79 79 80 81 82 83 84 85 86 89 91 91 88 86 86 89 91 92 92 93 95 97 99 101 102 104 106 108 109 110 111 112 113 113 113 114 113 112 111 110 109 108 108 108 108 108 109 110 111 112 112 113 113 112 111 110 109 107 106 104 104 103 102 101 101 101 99 98 97 95 94 92 90 89 87 85 83 81 79 78 78 77 77
80 79 79 80 79 79 80 81 82 83 84 86 87 87 87 85 84 84 86 87 88 89 90 91 93 96 98 100 102 104 106 108 109 111 112 113 114 114 113 112 110 110 109 109 109 109 109 110 110 111 112 113 113 113 113 113 112 111 109 108 107 105 104 103 102 101 100 99 98 97 96 94 93 92 90 88 86 84 82 80 79 78 77 77 77
79 79 79 80 79 78 78 79 80 80 81 82 81 82 82 82 82 83 83 84 85 86 87 88 89 92 94 96 97 99 101 104 107 109 110 111 113 113 112 111 110 109 109 108 110 111 111 111 112 112 112 112 112 113 113 112 112 111 110 109 108 107 106 105 104 102 101 99 98 96 95 93 92 91 89 88 85 83 81 79 78 78 77 77 78
78 78 79 79 78 77 76 76 77 77 77 78 78 78 78 78 80 81 82 83 83 83 84 85 86 88 90 92 93 95 97 100 103 106 107 108 110 111 110 110 109 109 108 109 111 112 112 112 112 112 112 112 112 112 112 111 111 111 110 110 109 108 107 105 104 102 100 99 97 96 94 93 92 90 89 87 84 82 81 80 79 78 78 79 79
76 77 77 77 77 76 75 74 74 74 74 75 76 76 76 76 78 79 81 82 82 82 82 83 83 84 86 87 89 91 94 96 99 101 103 104 107 108 109 108 108 108 108 109 111 112 111 112 112 112 112 112 112 111 111 111 111 110 110 110 109 107 106 104 102 101 100 98 97 95 94 93 92 90 89 86 83 82 81 80 80 79 79 79 80
73 74 75 75 74 74 74 74 73 72 72 72 73 75 75 75 76 77 78 79 80 80 80 80 81 81 83 84 85 87 89 92 94 96 98 100 103 105 106 105 105 106 106 108 109 110 110 110 110 111 111 111 111 110 110 110 110 109 109 108 107 105 103 102 100 99 99 97 96 95 94 93 92 90 88 86 83 81 81 80 80 80 80 80 80
71 72 73 73 73 73 73 73 73 72 71 70 70 72 73 74 74 74 74 74 76 77 78 78 79 79 80 81 82 84 86 88 90 91 93 94 97 100 102 102 103 103 104 105 105 105 106 107 108 108 109 109 109 108 108 108 108 107 106 106 104 102 101 100 99 99 98 97 96 95 93 92 91 89 88 86 83 81 80 80 80 81 80 80 80
69 70 71 71 72 72 72 73 72 72 71 70 69 69 70 71 72 71 71 71 72 73 74 75 76 77 78 78 79 81 83 85 85 86 88 89 91 94 97 98 99 99 99 99 100 101 102 103 104 105 106 106 106 105 105 105 105 104 103 103 101 100 100 99 98 98 97 96 95 94 93 92 90 89 87 85 83 82 80 80 80 80 80 81 80
66 67 68 69 69 69 70 70 70 70 70 70 69 69 68 68 68 69 69 70 70 71 71 72 73 74 75 77 78 80 80 81 81 83 84 86 87 89 91 93 94 94 94 94 95 96 97 98 100 101 103 103 103 102 102 102 102 101 101 100 99 98 98 98 97 97 96 95 94 93 92 91 90 88 86 84 82 81 80 79 80 80 80 80 79
62 63 64 65 66 66 67 67 68 68 68 68 68 68 67 66 66 67 68 69 69 70 70 71 71 72 73 75 76 77 77 79 80 81 82 83 84 84 86 87 88 89 90 90 91 92 93 94 95 97 98 99 99 99 99 99 99 99 98 98 97 97 96 96 96 96 95 94 93 92 91 90 88 87 85 83 81 80 79 79 80 80 80 79 78
59 60 61 61 62 63 63 64 64 65 65 65 66 66 66 65 65 65 66 67 68 69 70 70 70 71 72 72 73 74 76 78 79 79 79 79 80 81 82 84 85 86 87 88 88 89 90 90 91 93 94 95 96 97 97 97 96 96 96 96 95 95 95 95 94 94 93 92 92 91 90 89 87 85 83 82 80 79 79 79 79 79 78 77 77
55 56 57 58 59 59 60 61 61 61 62 62 63 63 64 64 64 64 64 65 66 67 68 69 70 70 70 71 72 73 75 76 76 76 76 75 76 77 79 81 82 84 85 86 86 87 87 88 89 89 90 91 93 93 94 94 93 93 93 93 93 93 93 93 93 92 91 91 90 89 88 87 85 83 82 80 79 79 78 79 79 78 76 76 75
53 54 55 55 56 56 57 57 58 58 59 60 60 61 61 62 62 62 62 62 63 64 65 66 68 68 69 70 71 72 73 73 74 74 74 74 74 75 77 78 80 81 82 83 83 84 84 85 85 86 87 88 89 90 91 91 91 91 91 91 91 92 92 91 91 90 89 88 87 87 86 85 84 82 81 80 79 78 78 78 78 77 75 75 74
51 52 53 53 53 54 54 54 55 55 56 57 57 58 58 59 59 60 60 60 61 61 62 64 65 66 67 68 69 70 70 71 72 73 74 74 75 75 76 77 79 79 80 80 81 81 82 82 83 84 85 86 87 87 88 88 88 88 89 90 90 90 90 90 89 88 87 85 84 84 83 83 82 81 80 79 79 78 78 77 77 75 74 73 72
50 50 51 51 52 52 52 52 53 53 53 54 54 55 56 56 57 58 58 59 60 61 61 62 63 64 66 67 68 68 69 70 71 73 73 74 75 75 76 77 78 79 79 80 80 80 80 81 82 83 84 84 85 85 86 86 86 87 87 88 88 88 88 87 86 85 83 82 82 81 81 81 80 80 80 79 79 78 77 76 75 74 73 72 71
49 49 49 50 50 50 51 51 51 51 52 52 52 53 54 54 55 56 57 57 59 59 60 61 62 63 64 65 66 67 68 69 71 72 73 73 74 75 75 76 77 77 78 78 79 79 80 80 81 82 82 83 83 84 84 85 85 86 86 86 86 85 85 83 82 81 80 80 80 80 79 79 79 79 79 79 79 77 76 75 74 72 71 71 70
47 47 47 48 48 49 49 49 49 50 50 51 51 52 52 53 53 54 55 55 57 57 58 59 60 61 62 63 64 65 66 67 68 69 70 71 72 72 73 73 74 75 75 76 77 78 78 79 79 80 81 81 81 82 82 83 83 83 83 83 83 82 81 80 79 78 78 78 78 79 78 78 79 79 79 79 78 76 75 74 72 71 69 68 67
45 45 45 46 46 47 47 48 48 48 49 49 50 51 51 52 52 53 53 54 55 56 56 57 58 59 60 60 61 61 62 63 64 65 67 68 69 70 70 71 72 73 73 74 75 76 77 77 78 78 79 79 79 80 80 80 80 80 80 80 79 78 78 77 77 77 77 77 78 78 78 78 79 79 78 78 76 75 73 72 70 68 66 65 64
Wind_Direction
276 274 273 272 271 272 273 272 272 270 269 267 266 266 267 268 268 268 268 268 268 269 269 269 269 269 268 269 269 269 270 270 270 271 271 271 271 272 272 272 272 272 272 272 272 272 272 272 272 272 272 273 273 273 274 274 275 275 276 276 277 278 278 279 280 281 281 282 282 283 283 284 285 285 286 287 288 289 290 290 291 291 291 291 291
276 276 275 275 275 275 275 274 272 270 269 267 265 264 264 265 265 265 266 266 266 267 267 268 268 268 268 269 269 269 268 268 268 269 269 270 270 271 272 272 272 272 272 272 272 272 271 271 271 272 272 273 273 273 274 274 275 276 276 277 278 279 279 280 281 281 282 282 282 282 283 283 284 284 285 286 287 288 289 290 290 290 290 290 290
274 274 275 275 274 274 274 273 272 270 268 267 266 264 263 263 263 264 265 265 265 265 266 266 266 266 267 267 268 268 268 268 268 268 268 268 269 270 270 271 272 272 272 272 272 272 271 271 271 272 273 273 274 274 275 275 276 276 277 278 278 279 280 280 281 281 282 282 283 283 284 284 284 285 286 286 287 288 288 288 288 288 288 288 288
271 271 272 272 272 272 272 271 269 268 267 266 265 265 264 264 264 264 264 265 265 265 266 266 266 265 265 265 266 266 266 266 267 267 268 268 268 268 269 270 270 271 271 272 272 272 272 272 272 273 274 275 275 275 276 276 277 277 278 278 279 279 280 281 282 282 283 284 284 284 284 285 285 285 286 286 286 287 287 286 286 286 287 287 287
270 270 269 269 269 269 269 268 267 266 265 264 264 264 265 265 265 265 265 265 265 265 265 266 265 265 264 264 264 265 265 265 265 266 267 267 267 268 268 269 269 270 270 271 271 272 272 272 273 273 274 275 276 276 277 277 277 278 278 279 280 281 282 283 283 284 285 285 285 285 285 285 285 285 286 286 286 286 285 285 285 285 285 285 285
269 268 267 266 265 264 265 266 266 265 264 264 264 264 264 264 265 265 265 266 266 265 265 265 265 264 264 263 263 264 264 264 264 265 265 266 266 267 267 268 269 269 270 270 271 271 272 272 273 273 274 275 276 277 278 278 279 280 280 281 282 282 283 284 285 285 285 285 284 284 284 284 285 285 285 285 285 285 285 285 285 284 284 283 283
268 266 264 263 261 260 260 261 262 262 262 262 262 261 262 262 263 263 264 264 264 264 264 264 264 263 263 263 263 264 264 264 264 264 265 265 266 266 267 268 268 269 269 270 271 271 272 273 273 274 275 275 276 277 278 279 280 281 281 282 283 283 284 284 285 285 284 284 283 283 283 284 284 284 284 284 284 284 284 283 283 283 282 282 281
272 270 267 264 262 262 261 260 260 260 260 260 260 260 260 260 261 261 262 262 263 263 263 263 263 263 263 263 263 264 264 264 265 265 266 266 267 267 268 268 269 269 270 270 271 272 273 274 274 275 276 276 277 278 278 279 280 280 281 282 282 283 283 284 284 284 283 283 282 282 282 282 283 283 283 282 282 282 282 282 282 282 282 281 280
274 273 272 269 266 264 264 263 263 263 262 262 261 261 261 261 261 261 261 261 261 262 263 264 264 264 264 264 264 264 265 265 265 266 266 267 268 268 268 269 269 270 271 271 272 273 273 274 275 275 276 276 277 277 278 278 278 279 280 281 281 282 282 283 283 283 282 282 281 281 281 281 281 281 281 281 282 282 282 282 282 282 281 281 281
273 273 273 273 271 269 267 265 265 265 265 265 265 264 263 263 263 263 262 262 262 262 263 263 264 265 265 265 265 265 265 266 267 267 267 268 269 269 269 270 270 271 271 272 272 273 273 273 274 275 275 276 277 277 278 278 278 278 279 280 280 281 282 282 282 282 281 281 281 281 281 281 282 282 282 282 282 283 283 283 283 282 281 282 282
271 271 271 271 271 270 269 268 268 268 267 267 267 266 266 266 265 265 265 265 264 264 264 264 264 264 264 265 265 266 267 267 267 267 268 269 270 271 271 271 270 270 270 271 271 272 272 272 273 274 275 275 276 277 278 279 279 278 278 279 280 281 281 281 282 282 282 282 282 282 282 283 283 283 283 284 284 284 284 283 283 283 282 282 283
268 268 269 269 269 268 268 268 268 268 267 267 267 266 266 266 266 266 266 266 266 266 266 267 266 265 265 265 265 267 267 267 267 268 268 269 270 271 271 271 270 270 269 270 270 271 271 272 272 273 274 274 275 276 277 277 278 278 279 279 280 281 281 282 282 283 283 284 284 284 284 284 284 284 285 286 286 285 284 284 284 284 283 283 283
266 266 265 266 266 266 266 266 266 265 265 264 265 265 265 265 265 266 266 266 267 267 267 267 267 267 266 266 266 266 266 267 267 268 268 268 269 269 269 269 269 269 269 269 270 270 271 271 272 273 273 274 275 276 276 276 276 277 278 279 280 280 281 281 282 283 284 285 285 285 285 285 285 285 286 286 286 285 285 285 285 284 284 284 284
265 265 264 264 264 264 264 264 264 263 262 261 261 262 263 263 264 264 265 265 266 267 267 267 268 268 268 267 267 266 267 267 268 269 269 270 270 269 269 269 269 269 269 270 270 270 270 271 272 273 274 274 275 275 275 275 276 277 279 280 280 280 281 281 282 283 284 284 285 285 285 285 286 286 286 286 286 286 286 285 285 285 285 286 285
264 264 263 263 263 263 263 263 263 262 262 261 260 259 259 260 261 262 262 263 264 265 266 267 268 269 269 269 268 268 268 268 269 270 271 271 272 272 272 272 272 272 272 272 272 272 272 273 274 274 275 275 276 276 275 275 276 278 279 280 280 281 281 282 282 283 284 284 285 285 285 286 286 287 287 286 286 286 286 285 285 285 286 286 286
264 264 264 263 262 262 262 262 263 263 263 262 261 260 259 258 259 260 260 261 262 262 263 264 265 266 267 268 269 269 269 270 270 271 271 271 271 272 273 274 275 275 275 276 276 276 277 277 277 277 277 277 277 277 277 277 278 280 280 280 280 281 281 282 283 283 284 284 284 285 285 286 287 287 287 287 286 286 285 285 285 286 286 286 286
263 263 263 263 263 263 262 262 262 262 263 263 263 262 261 260 259 259 259 259 260 260 261 262 262 263 265 266 267 268 268 269 270 270 271 271 271 272 273 273 274 275 276 277 278 279 280 280 279 279 279 279 278 278 278 279 280 281 281 281 281 281 282 282 283 284 284 284 284 285 285 286 287 287 286 286 285 285 285 285 286 286 286 286 285
261 261 261 262 262 262 263 262 262 262 262 263 263 264 263 263 262 261 260 260 259 260 260 260 261 262 263 264 265 266 266 267 268 268 269 270 271 272 272 273 274 275 276 278 279 280 280 280 280 280 280 279 279 279 279 280 280 280 280 281 281 281 282 282 283 284 284 284 284 285 286 286 287 286 285 285 285 285 285 285 285 286 286 285 285
258 259 259 259 260 260 261 261 262 262 262 263 263 263 264 264 263 263 262 261 261 261 260 261 261 262 263 263 264 265 266 267 267 268 268 269 270 271 272 273 274 275 276 278 279 279 279 279 280 280 280 280 279 279 279 279 280 280 280 280 281 281 282 282 283 283 283 284 284 285 286 286 286 285 284 284 284 285 285 285 285 285 285 285 285
258 258 257 257 257 257 258 259 259 260 260 261 262 262 262 263 263 263 263 263 263 262 262 262 262 262 263 263 264 264 265 266 266 267 268 269 270 271 272 272 274 275 276 276 276 277 277 278 278 278 279 279 279 279 279 279 280 280 280 280 281 281 282 282 283 283 283 284 285 285 285 285 285 284 284 284 284 284 284 285 285 285 285 286 286
260 259 258 257 256 256 256 256 257 257 258 259 259 260 261 261 262 262 262 263 263 263 263 263 263 263 263 263 263 263 264 265 265 266 267 268 268 269 270 271 272 273 273 274 274 275 275 276 276 277 277 278 278 278 279 279 279 280 280 280 281 281 282 282 282 283 283 284 284 284 284 284 284 283 283 284 284 285 285 285 285 286 286 286 286
262 261 260 259 258 257 256 256 255 255 256 256 257 258 259 259 260 260 261 261 262 262 263 263 263 263 263 263 263 264 264 264 265 265 265 266 267 268 269 270 270 271 271 271 272 273 274 275 275 276 276 276 277 277 277 278 279 279 280 280 281 281 282 282 282 283 283 283 284 284 284 284 283 283 284 285 285 286 286 286 287 287 287 286 286
262 262 261 260 259 259 258 257 256 256 255 256 256 256 257 257 258 258 259 260 260 261 262 262 262 262 263 263 264 264 264 264 265 265 266 266 267 267 268 269 270 270 271 271 272 273 274 275 275 275 275 275 276 277 277 278 279 279 279 280 281 281 281 281 282 282 283 283 283 284 284 284 284 285 285 286 286 287 287 287 287 287 286 287 287
261 261 260 260 259 259 258 258 257 257 256 256 256 256 256 257 257 257 258 258 259 260 260 261 262 262 262 263 263 263 264 264 265 265 266 266 267 267 268 269 270 271 271 272 272 273 274 274 275 275 275 275 276 277 277 278 278 279 279 280 280 280 280 281 281 282 282 283 283 284 284 285 285 286 286 287 287 287 286 286 286 286 287 288 288
260 260 260 260 259 259 258 258 257 257 256 256 256 256 256 257 257 257 257 258 258 258 259 260 261 261 261 262 262 263 263 264 264 265 265 266 266 267 268 269 270 270 271 272 272 272 273 274 274 275 275 276 276 277 277 278 279 279 280 280 280 280 280 280 281 282 282 283 283 284 285 286 286 287 287 287 286 286 286 286 287 287 288 288 288
260 260 260 260 259 259 258 257 257 256 256 256 256 256 256 256 257 257 257 257 257 258 258 259 259 260 260 261 261 262 263 263 264 264 265 265 266 266 267 267 268 269 270 270 271 271 272 272 273 274 275 275 276 277 277 278 279 279 279 279 279 279 280 280 281 281 282 283 284 285 286 286 287 287 287 286 286 285 286 287 287 288 288 288 287
261 260 259 259 259 259 258 257 256 256 256 256 256 256 256 256 256 256 256 256 256 257 257 257 258 258 259 259 260 261 262 263 263 264 264 265 266 266 266 267 267 269 270 270 270 270 271 272 272 273 274 275 275 276 276 277 277 277 278 278 279 280 280 280 281 282 283 284 285 285 286 286 286 286 286 285 285 286 286 287 287 287 287 286 285
262 261 260 260 259 259 258 257 256 256 256 256 256 256 255 256 256 256 256 255 255 256 256 256 256 256 257 258 259 259 260 261 262 262 263 264 265 265 266 266 267 268 269 270 270 270 270 271 272 273 273 274 274 275 276 276 277 277 277 278 279 279 280 281 282 282 283 284 284 285 285 285 284 284 284 284 284 285 286 286 286 286 285 284 283
263 262 262 261 261 260 260 259 258 258 257 257 256 255 255 255 255 255 255 255 255 255 255 255 255 255 256 256 257 258 259 259 260 261 262 263 264 265 265 266 266 266 266 267 268 269 269 270 271 272 272 273 274 275 275 276 276 276 277 277 278 279 280 281 281 282 283 283 283 282 282 283 283 283 283 283 283 284 285 285 285 285 284 283 282
265 264 263 263 262 262 261 260 260 260 260 259 258 257 256 255 255 254 254 254 255 255 255 255 254 254 255 255 256 256 257 258 259 260 260 261 262 263 264 264 265 265 265 265 266 267 268 269 269 270 271 272 273 274 275 275 275 276 276 277 277 278 279 280 280 281 281 281 281 281 281 282 282 282 282 283 284 285 285 286 285 285 284 283 282
267 267 266 265 264 263 262 261 260 261 261 261 259 257 256 256 256 255 254 254 255 256 255 255 254 254 254 254 255 255 256 256 257 258 259 260 261 262 262 263 263 263 263 264 264 266 267 268 269 270 271 272 274 274 275 275 275 276 276 276 277 278 278 279 280 280 281 281 281 282 282 282 282 283 283 284 285 286 287 287 286 286 285 283 282
268 267 266 265 264 263 262 261 259 259 260 261 260 258 255 255 255 255 254 253 254 255 255 255 255 254 254 254 254 254 255 255 256 257 258 258 259 260 261 262 262 262 262 263 263 264 266 267 268 270 271 272 273 274 275 276 276 277 277 277 278 278 279 280 280 281 282 282 282 282 282 283 283 284 285 286 287 287 288 287 287 286 286 285 284
269 267 266 264 263 262 261 260 258 257 257 258 259 258 256 253 253 253 253 253 252 253 253 254 254 254 253 253 253 253 253 254 255 255 257 258 258 259 260 260 261 262 262 263 263 264 265 266 267 268 269 270 271 272 274 275 276 277 277 278 279 279 280 280 281 281 282 282 282 283 283 284 284 286 286 287 287 288 288 288 287 287 286 285 285
271 269 268 266 264 263 262 261 260 258 257 256 258 259 258 256 254 253 253 253 253 252 252 252 252 252 252 252 252 252 253 253 254 254 255 256 257 258 258 259 260 261 262 263 263 264 264 265 266 267 268 269 270 271 272 273 275 276 277 278 279 279 279 280 281 281 282 282 283 283 284 285 286 287 287 287 287 287 288 287 287 286 286 286 285
270 269 268 267 265 264 263 263 262 261 260 259 259 260 261 260 259 257 256 255 255 254 253 252 252 252 252 251 251 252 252 253 253 254 254 255 256 257 258 259 259 260 261 262 263 264 264 265 265 266 267 269 270 271 272 274 275 276 277 278 279 280 281 281 282 282 283 283 284 285 286 286 287 287 287 287 287 287 287 288 287 287 286 286 285
269 268 267 267 266 265 264 263 263 262 262 263 263 263 263 263 262 261 259 258 257 256 255 254 253 252 252 252 252 252 252 253 253 254 254 254 255 257 258 258 259 260 261 261 262 263 264 265 266 267 268 269 270 271 273 274 276 277 278 279 280 281 282 282 283 283 284 284 285 286 286 287 287 287 287 287 287 287 288 288 288 287 287 286 285
268 268 267 267 267 266 265 264 264 263 263 263 263 263 262 261 261 261 260 259 258 257 256 256 255 254 254 253 253 253 252 253 253 254 255 255 256 257 258 258 259 259 260 261 261 263 264 265 266 267 268 270 271 272 273 275 276 277 278 279 280 281 282 282 283 283 284 285 285 286 287 287 287 287 287 287 288 288 288 288 288 288 288 286 285
269 268 268 268 268 268 268 267 266 265 264 264 263 263 262 260 259 259 259 259 259 258 258 257 256 256 256 255 254 253 253 253 254 254 255 256 256 257 258 258 259 259 260 260 261 262 264 265 266 267 269 270 271 272 274 275 276 277 278 279 279 280 281 282 283 283 284 284 285 286 287 287 287 287 287 288 288 288 289 289 289 289 288 287 285
269 269 269 269 269 269 269 268 267 266 265 263 263 263 262 261 260 259 259 260 260 260 259 258 258 257 256 256 255 254 254 254 254 254 254 255 256 257 258 259 260 260 260 260 261 262 263 265 266 267 268 269 271 272 273 274 275 276 277 277 278 279 280 281 282 282 283 284 285 285 286 286 287 287 287 288 288 289 289 289 289 288 288 287 285
268 268 268 269 269 269 268 268 268 267 266 265 263 263 263 263 262 261 261 260 260 260 259 259 258 258 257 256 256 255 255 254 255 255 255 255 255 257 258 260 260 261 261 261 262 263 264 264 265 266 268 269 270 271 272 273 274 275 276 277 278 279 279 280 281 282 282 283 284 285 285 286 286 286 287 288 288 289 289 289 289 288 287 286 285
267 267 267 268 268 268 268 268 268 268 267 266 265 264 263 263 263 263 262 261 260 260 259 259 259 258 258 257 256 256 255 255 255 256 256 255 255 256 257 259 260 261 262 262 263 263 263 264 265 266 267 268 269 270 271 272 273 274 275 276 277 278 279 280 280 281 282 282 283 284 284 285 285 286 287 288 288 289 289 289 288 287 286 285 284
266 266 266 266 267 267 267 267 268 268 268 267 266 265 264 263 263 263 262 262 261 260 259 259 258 258 257 257 256 256 256 256 256 256 256 256 256 256 257 258 260 261 262 262 262 262 263 263 264 265 266 267 269 269 270 271 272 273 274 275 276 277 278 279 280 280 281 282 282 283 284 284 285 286 287 287 288 289 289 288 288 287 285 284 284
266 266 266 266 266 266 266 266 267 267 267 267 266 266 265 263 262 261 260 260 260 260 259 259 258 257 257 257 257 257 257 256 256 256 255 256 256 257 257 258 259 260 261 261 261 262 262 262 263 263 265 266 268 269 270 270 272 273 274 275 276 277 278 278 279 280 280 281 282 283 283 284 285 286 286 287 287 288 288 287 286 285 284 284 284
267 266 266 266 265 265 265 265 265 266 266 266 265 265 264 263 262 261 259 259 258 258 258 258 258 258 258 258 258 258 257 257 257 257 257 257 257 257 258 258 259 260 260 261 261 261 262 262 263 263 264 265 267 268 269 270 271 272 273 274 275 276 277 277 278 279 279 280 281 282 283 284 285 285 286 287 287 287 287 286 284 283 284 284 285
267 266 266 265 265 265 265 264 264 264 264 264 264 264 264 263 262 261 260 259 258 258 258 258 258 258 258 258 258 258 258 259 259 260 259 259 259 258 258 258 259 259 260 261 261 262 262 263 263 264 265 266 267 268 269 270 271 272 272 273 274 275 276 277 277 278 279 280 281 282 283 284 284 285 285 286 286 285 285 284 283 283 284 284 285
268 267 266 266 265 265 264 264 264 263 263 263 263 262 262 263 262 262 261 260 260 259 258 258 258 258 257 257 257 258 258 260 260 261 261 261 260 260 259 259 259 259 260 261 261 262 263 263 264 265 265 266 266 267 268 269 270 271 272 273 274 275 276 276 277 278 279 280 281 282 283 283 284 284 285 285 284 284 283 282 283 283 284 285 286
269 268 267 267 266 266 265 265 264 264 263 263 262 262 262 262 262 261 261 260 260 259 257 257 256 256 256 256 256 256 257 257 258 258 259 259 259 259 259 260 260 260 261 261 262 262 263 263 264 265 265 266 266 267 268 269 270 271 272 273 274 275 276 277 277 278 279 280 280 281 282 282 283 283 283 283 282 282 282 282 283 284 285 286 288
270 269 268 268 267 267 266 265 265 264 264 263 263 262 262 261 260 260 260 259 259 258 258 257 256 255 255 255 255 255 256 256 256 256 257 257 257 258 258 258 259 260 261 261 262 263 263 264 264 265 266 266 267 268 269 270 271 271 272 273 274 274 275 276 277 277 278 279 279 280 280 281 281 281 281 281 281 281 281 282 283 285 286 288 288
271 271 269 269 268 268 267 266 265 264 264 263 263 263 262 262 261 260 260 260 259 259 259 259 258 258 257 257 256 256 256 256 256 256 257 257 257 258 258 259 260 261 261 262 263 264 264 265 265 266 267 268 268 269 270 271 271 272 272 273 273 274 275 275 276 277 277 278 278 278 279 279 279 279 279 279 280 280 282 283 284 286 287 287 288
272 271 270 269 268 268 267 266 266 265 264 264 263 263 262 262 261 261 261 260 260 260 260 260 259 259 259 258 258 258 258 258 259 259 260 260 260 261 261 262 262 263 263 264 265 265 265 266 267 267 268 268 269 270 270 271 271 272 272 273 273 274 275 275 276 276 276 277 277 277 277 277 277 277 278 279 280 281 283 284 285 286 286 286 286
272 272 271 270 269 268 267 266 266 265 264 263 263 263 262 262 261 261 261 261 260 260 260 260 260 260 260 260 260 260 260 260 260 260 261 261 262 262 262 263 263 264 264 264 265 265 266 266 267 267 268 268 269 269 269 270 270 271 271 272 273 273 274 275 275 275 275 276 276 276 277 277 277 278 279 280 282 283 284 285 285 285 285 284 284
Height
10517 10521 10525 10529 10531 10531 10529 10529 10529 10529 10529 10529 10529 10528 10525 10522 10519 10517 10517 10519 10521 10520 10520 10520 10519 10518 10518 10518 10518 10518 10518 10517 10517 10516 10515 10514 10513 10512 10512 10512 10513 10513 10513 10514 10514 10513 10513 10512 10510 10509 10508 10508 10507 10506 10505 10503 10502 10500 10497 10495 10493 10490 10488 10487 10484 10476 10469 10468 10468 10464 10461 10460 10454 10448 10445 10444 10441 10438 10435 10434 10432 10429 10425 10421 10417
10499 10502 10505 10509 10513 10513 10510 10510 10511 10510 10509 10509 10509 10509 10506 10503 10500 10499 10502 10504 10505 10505 10505 10504 10503 10502 10502 10503 10503 10503 10502 10502 10502 10502 10501 10500 10499 10499 10498 10498 10498 10498 10497 10498 10498 10498 10498 10497 10496 10495 10495 10495 10493 10492 10491 10489 10488 10485 10483 10481 10478 10476 10475 10474 10471 10466 10458 10453 10453 10451 10448 10446 10442 10436 10434 10433 10430 10426 10423 10420 10418 10414 10410 10406 10402
10486 10486 10488 10492 10493 10492 10489 10489 10491 10493 10491 10489 10488 10487 10486 10484 10482 10483 10486 10487 10488 10489 10489 10487 10487 10488 10488 10488 10487 10487 10486 10487 10487 10487 10487 10486 10486 10485 10484 10484 10484 10483 10481 10480 10480 10481 10481 10480 10479 10479 10479 10480 10479 10477 10476 10474 10472 10470 10468 10465 10463 10461 10461 10459 10457 10454 10447 10439 10436 10436 10434 10430 10427 10423 10420 10419 10417 10415 10412 10408 10404 10401 10397 10394 10389
10470 10472 10474 10475 10473 10471 10468 10468 10470 10474 10473 10470 10468 10467 10466 10466 10467 10469 10470 10471 10472 10471 10470 10470 10470 10471 10472 10471 10470 10469 10470 10471 10471 10472 10472 10471 10471 10471 10470 10470 10469 10468 10465 10462 10461 10463 10464 10463 10463 10462 10462 10462 10461 10460 10458 10457 10456 10454 10452 10449 10447 10445 10444 10443 10441 10438 10434 10426 10419 10417 10416 10414 10411 10407 10405 10403 10402 10400 10399 10396 10392 10388 10384 10380 10376
10451 10453 10457 10459 10458 10454 10449 10447 10449 10452 10452 10451 10450 10449 10448 10448 10450 10452 10453 10453 10454 10454 10453 10453 10453 10454 10454 10453 10451 10451 10452 10454 10455 10456 10456 10455 10455 10455 10455 10454 10454 10453 10450 10447 10444 10444 10446 10446 10446 10445 10445 10444 10442 10441 10440 10439 10438 10436 10433 10431 10429 10427 10425 10423 10422 10420 10417 10411 10405 10400 10398 10397 10395 10392 10390 10388 10386 10384 10383 10382 10378 10374 10371 10367 10363
10431 10434 10437 10440 10440 10438 10434 10430 10430 10431 10432 10433 10433 10432 10432 10432 10432 10433 10434 10434 10435 10435 10436 10436 10436 10436 10435 10434 10433 10433 10434 10436 10438 10440 10440 10439 10438 10439 10439 10438 10437 10437 10436 10433 10429 10427 10428 10429 10429 10428 10427 10425 10424 10423 10422 10420 10419 10417 10415 10413 10411 10409 10407 10405 10404 10403 10400 10396 10391 10385 10382 10380 10379 10378 10376 10374 10372 10369 10367 10366 10363 10359 10356 10354 10350
10408 10413 10417 10420 10420 10419 10418 10417 10415 10414 10414 10415 10415 10415 10415 10415 10415 10415 10415 10416 10417 10418 10418 10418 10418 10418 10417 10417 10417 10416 10416 10418 10420 10422 10422 10421 10421 10422 10422 10422 10421 10421 10421 10418 10415 10412 10411 10412 10412 10410 10410 10409 10408 10407 10405 10404 10401 10399 10396 10395 10393 10391 10389 10387 10387 10386 10384 10380 10376 10372 10368 10365 10363 10363 10362 10360 10358 10355 10352 10351 10349 10344 10341 10339 10335
10385 10388 10392 10397 10399 10399 10399 10400 10400 10399 10398 10398 10398 10398 10398 10398 10398 10399 10400 10400 10401 10400 10400 10400 10400 10401 10401 10401 10400 10399 10398 10400 10402 10403 10404 10403 10403 10404 10405 10404 10404 10405 10405 10404 10401 10398 10397 10396 10395 10393 10392 10393 10393 10391 10390 10388 10385 10383 10380 10378 10376 10374 10371 10371 10371 10370 10368 10365 10361 10358 10354 10350 10348 10348 10347 10346 10345 10342 10338 10336 10335 10331 10327 10324 10321
10367 10367 10368 10372 10376 10378 10380 10381 10382 10382 10381 10381 10381 10381 10382 10382 10382 10383 10385 10386 10385 10384 10384 10383 10383 10384 10385 10385 10384 10383 10382 10383 10384 10385 10386 10386 10386 10387 10387 10387 10388 10389 10389 10388 10386 10384 10383 10382 10380 10377 10376 10376 10376 10375 10373 10372 10369 10367 10365 10362 10360 10357 10355 10355 10355 10354 10352 10350 10346 10343 10340 10336 10333 10332 10331 10332 10332 10329 10324 10321 10320 10318 10314 10311 10307
10350 10350 10350 10351 10353 10357 10360 10362 10364 10365 10364 10363 10362 10362 10364 10364 10365 10367 10369 10370 10370 10369 10368 10368 10368 10368 10368 10368 10368 10367 10367 10367 10367 10367 10367 10369 10369 10370 10370 10371 10372 10372 10373 10373 10372 10370 10368 10366 10364 10362 10361 10361 10360 10358 10356 10355 10353 10351 10349 10347 10343 10341 10340 10339 10339 10338 10337 10335 10331 10328 10325 10322 10318 10316 10317 10317 10317 10314 10310 10307 10306 10304 10301 10298 10294
10334 10334 10334 10335 10336 10338 10340 10342 10344 10346 10346 10346 10345 10346 10346 10346 10348 10350 10352 10353 10353 10353 10352 10353 10353 10353 10352 10353 10354 10353 10352 10350 10350 10350 10351 10352 10352 10352 10353 10354 10354 10355 10357 10357 10356 10354 10353 10351 10349 10348 10347 10346 10344 10342 10340 10338 10336 10334 10333 10330 10328 10326 10325 10323 10322 10322 10321 10319 10316 10312 10310 10307 10303 10302 10302 10302 10301 10299 10296 10293 10291 10289 10287 10285 10282
10317 10317 10317 10318 10320 10321 10323 10325 10327 10328 10329 10329 10329 10330 10330 10331 10332 10332 10333 10334 10335 10335 10336 10337 10336 10335 10336 10338 10340 10339 10337 10335 10334 10335 10336 10337 10336 10335 10335 10336 10337 10339 10340 10340 10340 10339 10338 10336 10335 10333 10332 10331 10329 10327 10325 10323 10320 10318 10316 10315 10313 10311 10310 10308 10307 10306 10304 10302 10300 10296 10294 10293 10290 10288 10288 10288 10286 10284 10282 10279 10276 10274 10272 10271 10270
10298 10299 10299 10299 10301 10302 10304 10307 10309 10309 10311 10312 10312 10313 10314 10315 10315 10315 10316 10317 10317 10318 10320 10319 10317 10317 10319 10322 10324 10323 10321 10320 10321 10321 10321 10321 10320 10319 10319 10319 10321 10322 10323 10324 10324 10324 10323 10321 10320 10319 10317 10315 10314 10312 10310 10307 10305 10304 10302 10301 10299 10296 10295 10293 10291 10290 10288 10286 10284 10281 10279 10278 10277 10275 10275 10274 10272 10269 10267 10265 10261 10258 10258 10257 10255
10279 10280 10281 10281 10282 10283 10284 10286 10288 10289 10291 10294 10295 10296 10297 10298 10298 10298 10299 10300 10300 10301 10301 10301 10300 10299 10301 10304 10306 10305 10305 10305 10306 10306 10305 10305 10303 10302 10302 10303 10305 10306 10307 10308 10308 10309 10308 10306 10305 10303 10301 10299 10299 10297 10294 10292 10291 10290 10288 10286 10284 10282 10280 10279 10277 10275 10273 10271 10269 10266 10264 10264 10263 10262 10261 10259 10257 10254 10251 10249 10246 10244 10245 10244 10239
10261 10262 10264 10264 10264 10265 10265 10266 10267 10267 10269 10272 10276 10279 10280 10281 10281 10281 10282 10283 10284 10284 10283 10284 10284 10283 10283 10284 10286 10287 10289 10290 10290 10291 10290 10289 10288 10286 10286 10288 10289 10290 10290 10291 10291 10292 10292 10290 10289 10287 10284 10284 10283 10280 10278 10277 10278 10277 10274 10272 10269 10267 10265 10264 10262 10260 10258 10257 10255 10252 10250 10249 10248 10248 10246 10244 10242 10238 10235 10233 10231 10230 10233 10232 10225
10242 10244 10246 10247 10247 10248 10248 10248 10248 10247 10247 10249 10254 10258 10262 10264 10264 10265 10266 10267 10268 10268 10268 10268 10268 10267 10266 10267 10268 10271 10273 10273 10275 10275 10274 10273 10272 10271 10272 10273 10274 10274 10273 10274 10274 10274 10274 10273 10271 10269 10268 10268 10267 10263 10262 10263 10264 10262 10259 10256 10254 10252 10250 10249 10247 10246 10244 10242 10240 10237 10236 10235 10233 10232 10230 10228 10226 10223 10221 10217 10214 10215 10219 10218 10213
10225 10227 10228 10229 10229 10230 10230 10231 10232 10230 10229 10229 10231 10235 10240 10244 10246 10247 10249 10251 10251 10251 10251 10252 10252 10251 10251 10252 10254 10255 10257 10257 10258 10258 10258 10256 10255 10257 10258 10258 10258 10258 10258 10257 10258 10259 10257 10255 10252 10252 10252 10251 10249 10248 10248 10249 10249 10247 10244 10242 10240 10237 10235 10234 10233 10230 10228 10226 10224 10223 10222 10220 10218 10217 10214 10212 10210 10208 10207 10204 10200 10200 10202 10202 10199
10208 10211 10213 10213 10213 10213 10213 10214 10215 10215 10214 10213 10213 10215 10218 10223 10226 10228 10230 10232 10234 10234 10235 10236 10236 10237 10237 10238 10238 10239 10241 10242 10242 10242 10242 10240 10240 10243 10244 10242 10242 10243 10242 10243 10243 10244 10242 10238 10236 10235 10235 10234 10233 10233 10234 10234 10234 10233 10230 10228 10226 10223 10220 10220 10218 10215 10213 10210 10208 10208 10207 10205 10203 10201 10198 10196 10194 10193 10192 10190 10187 10186 10186 10185 10183
10190 10193 10196 10197 10197 10197 10196 10197 10198 10199 10199 10199 10198 10199 10201 10203 10205 10208 10210 10213 10215 10217 10219 10220 10222 10222 10222 10223 10223 10223 10225 10226 10226 10226 10226 10224 10225 10228 10228 10226 10226 10227 10228 10229 10229 10228 10227 10224 10222 10220 10219 10218 10217 10218 10219 10219 10219 10218 10216 10214 10212 10208 10206 10205 10203 10200 10197 10195 10194 10193 10191 10189 10188 10186 10183 10180 10178 10177 10176 10174 10173 10172 10171 10170 10166
10171 10174 10177 10179 10180 10180 10180 10180 10182 10182 10183 10183 10183 10183 10184 10185 10187 10188 10190 10193 10195 10198 10201 10204 10206 10207 10207 10207 10208 10208 10209 10210 10209 10210 10209 10208 10210 10214 10214 10212 10212 10213 10214 10215 10215 10214 10212 10210 10209 10207 10205 10203 10202 10202 10203 10205 10204 10203 10201 10199 10196 10194 10192 10191 10188 10184 10181 10180 10179 10178 10175 10174 10173 10170 10167 10164 10162 10161 10160 10158 10157 10156 10155 10154 10151
10151 10153 10157 10159 10161 10161 10162 10163 10164 10165 10165 10165 10166 10166 10167 10168 10170 10171 10172 10174 10176 10179 10181 10185 10188 10190 10190 10190 10191 10191 10193 10194 10194 10194 10194 10193 10196 10200 10200 10198 10198 10200 10201 10202 10201 10200 10199 10196 10195 10193 10191 10189 10189 10189 10189 10191 10190 10188 10186 10184 10181 10179 10178 10176 10172 10169 10167 10166 10164 10162 10160 10159 10157 10154 10151 10149 10147 10145 10144 10143 10141 10140 10138 10136 10135
10130 10133 10136 10138 10140 10141 10142 10144 10145 10147 10148 10148 10149 10150 10151 10151 10153 10154 10155 10157 10159 10161 10163 10166 10168 10170 10171 10172 10173 10175 10176 10177 10177 10178 10178 10179 10181 10186 10186 10183 10182 10185 10188 10189 10188 10186 10184 10182 10179 10178 10176 10175 10175 10175 10176 10177 10177 10174 10171 10168 10167 10166 10164 10161 10157 10155 10153 10151 10148 10146 10145 10143 10142 10138 10135 10134 10132 10130 10129 10127 10125 10123 10120 10118 10117
10109 10113 10115 10116 10118 10120 10122 10123 10125 10128 10130 10130 10131 10134 10135 10135 10136 10138 10140 10141 10143 10144 10146 10147 10149 10152 10154 10155 10156 10157 10158 10159 10160 10160 10162 10163 10165 10170 10170 10167 10166 10170 10172 10173 10173 10171 10168 10165 10163 10161 10160 10159 10160 10161 10160 10161 10163 10161 10156 10153 10153 10152 10149 10145 10143 10141 10139 10136 10134 10132 10129 10128 10127 10124 10121 10119 10117 10115 10114 10112 10109 10106 10103 10103 10101
10091 10094 10095 10096 10098 10100 10101 10103 10105 10108 10110 10111 10113 10116 10118 10118 10119 10122 10124 10125 10127 10128 10129 10130 10132 10135 10137 10138 10138 10139 10140 10142 10143 10144 10145 10146 10148 10153 10155 10152 10150 10153 10155 10156 10157 10155 10151 10147 10144 10142 10143 10144 10145 10145 10144 10145 10147 10145 10142 10140 10139 10136 10133 10131 10129 10127 10125 10122 10120 10118 10115 10114 10113 10110 10107 10105 10102 10099 10098 10096 10094 10091 10088 10089 10088
10074 10076 10076 10077 10079 10080 10083 10085 10087 10088 10090 10092 10094 10098 10100 10101 10102 10105 10107 10109 10111 10112 10112 10114 10116 10118 10120 10121 10121 10121 10122 10125 10126 10127 10128 10129 10130 10135 10140 10139 10136 10136 10138 10139 10140 10138 10134 10130 10127 10126 10127 10129 10129 10128 10129 10129 10130 10130 10128 10125 10123 10120 10118 10117 10116 10113 10111 10109 10107 10105 10102 10101 10099 10095 10092 10090 10086 10082 10082 10081 10079 10077 10075 10075 10074
10056 10058 10059 10060 10060 10061 10064 10067 10068 10069 10070 10073 10075 10078 10081 10083 10085 10087 10089 10092 10094 10095 10096 10098 10099 10101 10103 10104 10103 10104 10106 10108 10110 10110 10111 10112 10113 10117 10124 10126 10122 10120 10121 10124 10124 10123 10119 10116 10113 10112 10113 10114 10113 10112 10113 10114 10115 10115 10112 10109 10106 10105 10104 10104 10101 10099 10098 10096 10094 10092 10088 10086 10084 10080 10077 10074 10069 10066 10067 10068 10066 10063 10061 10061 10062
10037 10040 10041 10042 10043 10043 10045 10048 10050 10050 10051 10054 10058 10060 10063 10065 10067 10070 10072 10074 10076 10078 10080 10082 10083 10085 10087 10086 10086 10088 10090 10092 10094 10094 10094 10094 10094 10097 10105 10110 10110 10106 10106 10106 10107 10107 10104 10101 10098 10097 10098 10099 10098 10096 10097 10098 10100 10099 10096 10093 10091 10090 10089 10089 10088 10086 10085 10083 10081 10078 10075 10072 10069 10065 10062 10058 10054 10052 10053 10054 10054 10051 10048 10047 10048
10019 10022 10024 10024 10025 10026 10027 10029 10032 10033 10034 10037 10040 10044 10046 10048 10050 10054 10056 10057 10059 10061 10063 10065 10067 10069 10069 10069 10071 10073 10075 10077 10077 10077 10076 10076 10078 10081 10087 10094 10097 10095 10092 10089 10088 10089 10088 10086 10083 10083 10083 10083 10082 10080 10081 10084 10084 10083 10081 10079 10077 10075 10075 10075 10074 10073 10072 10070 10067 10064 10061 10058 10054 10051 10048 10044 10040 10039 10040 10040 10040 10039 10035 10033 10032
10001 10006 10008 10007 10007 10008 10009 10011 10014 10015 10017 10021 10024 10027 10029 10031 10034 10037 10039 10039 10041 10044 10046 10049 10051 10052 10052 10054 10056 10058 10060 10061 10060 10058 10060 10062 10063 10066 10071 10075 10079 10081 10079 10074 10071 10071 10072 10071 10069 10068 10067 10066 10066 10066 10067 10068 10068 10067 10066 10064 10062 10061 10061 10061 10060 10060 10059 10056 10054 10051 10048 10045 10041 10037 10034 10031 10027 10025 10025 10025 10025 10024 10021 10018 10016
9985 9990 9992 9991 9991 9991 9992 9995 9996 9996 9998 10003 10007 10010 10012 10013 10016 10020 10022 10022 10024 10026 10029 10032 10034 10034 10037 10040 10042 10043 10044 10044 10043 10043 10045 10046 10047 10049 10054 10057 10061 10063 10064 10061 10058 10056 10056 10056 10055 10053 10052 10051 10051 10051 10051 10052 10052 10051 10050 10049 10048 10047 10048 10047 10047 10046 10044 10042 10040 10038 10034 10031 10028 10024 10020 10017 10014 10011 10010 10009 10008 10007 10006 10003 10001
9967 9973 9974 9974 9974 9975 9976 9979 9979 9978 9979 9983 9988 9992 9995 9995 9998 10002 10005 10005 10006 10008 10011 10014 10016 10018 10022 10025 10026 10027 10028 10028 10028 10028 10029 10029 10030 10033 10036 10040 10044 10047 10048 10047 10045 10042 10041 10041 10040 10039 10037 10036 10036 10035 10034 10034 10035 10035 10035 10034 10033 10033 10033 10034 10033 10031 10029 10028 10025 10022 10020 10016 10013 10009 10006 10003 10001 9997 9994 9993 9993 9990 9989 9988 9986
9950 9956 9956 9955 9956 9957 9958 9961 9962 9961 9962 9964 9967 9973 9978 9979 9981 9984 9986 9988 9990 9992 9994 9997 9999 10003 10006 10008 10010 10011 10011 10012 10012 10012 10012 10013 10015 10017 10019 10023 10027 10029 10031 10032 10031 10029 10028 10028 10027 10025 10024 10022 10020 10018 10018 10018 10018 10018 10018 10018 10018 10018 10018 10018 10017 10015 10013 10012 10009 10006 10004 10001 9998 9995 9992 9989 9986 9983 9980 9978 9977 9975 9973 9972 9970
9934 9939 9940 9939 9939 9939 9940 9942 9943 9943 9945 9945 9946 9951 9958 9962 9964 9965 9965 9969 9973 9976 9978 9980 9983 9986 9989 9991 9992 9994 9994 9996 9997 9997 9997 9998 9999 10000 10003 10007 10010 10012 10015 10016 10016 10016 10015 10014 10013 10012 10010 10008 10006 10005 10004 10004 10003 10003 10002 10002 10003 10004 10004 10003 10002 10000 9998 9996 9993 9990 9988 9986 9983 9981 9979 9975 9972 9970 9967 9965 9963 9960 9957 9956 9954
9918 9923 9924 9923 9923 9924 9925 9926 9927 9927 9929 9929 9929 9932 9937 9943 9947 9948 9949 9951 9955 9959 9963 9965 9965 9967 9971 9974 9976 9977 9978 9980 9982 9982 9981 9981 9982 9983 9986 9992 9996 9998 10000 10001 10000 10000 10000 9999 9998 9997 9995 9993 9992 9991 9990 9990 9990 9989 9989 9990 9990 9990 9990 9988 9987 9985 9983 9980 9977 9975 9972 9970 9968 9967 9965 9962 9959 9956 9954 9952 9949 9946 9943 9941 9939
9904 9907 9907 9906 9906 9908 9910 9910 9911 9912 9913 9914 9915 9918 9921 9925 9929 9933 9935 9936 9938 9941 9946 9948 9949 9950 9953 9957 9960 9962 9963 9964 9965 9966 9965 9965 9965 9965 9970 9977 9982 9984 9986 9986 9984 9983 9983 9983 9982 9981 9980 9979 9978 9977 9976 9975 9975 9975 9975 9975 9975 9974 9974 9972 9970 9968 9966 9964 9961 9959 9957 9955 9954 9953 9951 9948 9946 9943 9941 9938 9936 9933 9930 9928 9926
9887 9889 9889 9889 9890 9893 9894 9895 9895 9897 9899 9901 9903 9906 9908 9911 9913 9916 9919 9921 9923 9925 9928 9931 9933 9934 9935 9940 9944 9947 9948 9949 9948 9947 9948 9949 9949 9950 9956 9964 9967 9969 9972 9972 9968 9965 9965 9966 9966 9966 9966 9966 9965 9964 9963 9962 9961 9961 9960 9959 9959 9958 9956 9955 9953 9951 9950 9948 9946 9945 9943 9942 9940 9939 9937 9935 9932 9930 9928 9925 9922 9920 9917 9915 9913
9871 9873 9873 9873 9874 9877 9880 9881 9882 9883 9886 9888 9889 9891 9894 9897 9898 9899 9901 9904 9907 9909 9911 9914 9918 9920 9921 9925 9929 9931 9932 9933 9931 9929 9932 9934 9935 9937 9944 9949 9951 9953 9957 9955 9950 9948 9949 9950 9951 9951 9951 9952 9951 9951 9950 9949 9948 9947 9946 9944 9943 9942 9941 9939 9938 9937 9935 9933 9932 9930 9929 9928 9927 9926 9924 9922 9919 9916 9914 9911 9909 9906 9904 9900 9898
9858 9858 9859 9860 9861 9864 9866 9868 9869 9870 9872 9874 9875 9876 9879 9882 9883 9885 9886 9888 9891 9894 9897 9900 9903 9906 9908 9910 9913 9915 9917 9918 9917 9916 9918 9920 9921 9923 9928 9932 9934 9938 9941 9938 9934 9934 9935 9936 9937 9937 9937 9938 9937 9937 9937 9936 9934 9933 9931 9929 9928 9927 9926 9925 9924 9923 9921 9919 9917 9916 9915 9913 9912 9912 9910 9908 9906 9903 9900 9897 9894 9892 9891 9887 9884
9847 9846 9846 9847 9849 9850 9852 9854 9855 9857 9859 9862 9862 9863 9865 9867 9869 9871 9874 9876 9878 9881 9883 9886 9890 9892 9893 9894 9897 9900 9902 9903 9904 9904 9905 9906 9907 9909 9913 9917 9920 9923 9924 9921 9920 9921 9923 9923 9924 9924 9923 9923 9923 9923 9923 9922 9920 9919 9917 9915 9914 9913 9912 9912 9911 9908 9906 9905 9903 9902 9902 9900 9899 9898 9896 9895 9893 9890 9887 9884 9880 9877 9877 9875 9871
9836 9835 9835 9836 9836 9837 9838 9840 9841 9843 9846 9849 9851 9852 9853 9854 9856 9859 9863 9865 9868 9869 9871 9873 9876 9878 9880 9880 9882 9886 9888 9888 9889 9890 9892 9894 9896 9898 9900 9903 9904 9905 9906 9906 9907 9909 9910 9910 9910 9909 9909 9909 9909 9909 9909 9908 9906 9905 9903 9901 9901 9900 9899 9898 9896 9894 9892 9891 9889 9889 9888 9887 9886 9885 9882 9880 9879 9877 9874 9871 9867 9864 9862 9860 9859
9824 9824 9824 9825 9825 9826 9826 9827 9828 9830 9832 9836 9838 9840 9841 9842 9844 9847 9850 9853 9855 9857 9859 9861 9863 9865 9866 9868 9869 9871 9872 9874 9877 9879 9881 9882 9884 9886 9887 9888 9889 9890 9892 9894 9895 9896 9895 9895 9895 9895 9895 9895 9895 9895 9894 9893 9892 9891 9890 9888 9887 9887 9885 9884 9882 9880 9879 9877 9876 9876 9876 9874 9873 9871 9869 9867 9865 9862 9860 9857 9854 9851 9849 9846 9844
9814 9814 9814 9814 9815 9816 9816 9816 9817 9819 9820 9822 9825 9827 9830 9832 9834 9835 9837 9839 9841 9843 9845 9848 9850 9851 9853 9854 9855 9856 9859 9863 9865 9867 9867 9868 9869 9872 9874 9875 9876 9877 9879 9880 9881 9881 9882 9882 9883 9882 9882 9881 9881 9881 9881 9880 9879 9878 9877 9875 9874 9874 9872 9871 9869 9867 9866 9865 9864 9863 9862 9861 9859 9858 9856 9854 9851 9849 9846 9844 9841 9838 9836 9834 9831
9803 9804 9804 9804 9805 9805 9805 9806 9807 9808 9809 9810 9812 9814 9817 9820 9822 9823 9825 9826 9827 9829 9831 9833 9836 9837 9839 9840 9842 9845 9848 9850 9850 9851 9852 9854 9857 9860 9861 9862 9864 9865 9865 9866 9867 9868 9869 9870 9870 9870 9869 9869 9868 9868 9867 9866 9865 9865 9863 9862 9861 9861 9860 9859 9857 9855 9854 9852 9851 9850 9849 9848 9847 9845 9842 9840 9838 9835 9833 9831 9828 9826 9824 9821 9819
9793 9794 9794 9794 9794 9795 9795 9796 9797 9797 9798 9800 9800 9802 9804 9806 9809 9811 9813 9814 9815 9817 9818 9820 9822 9824 9826 9828 9831 9833 9834 9834 9835 9838 9841 9843 9846 9847 9848 9849 9850 9850 9851 9853 9854 9855 9856 9857 9857 9857 9857 9856 9856 9855 9854 9853 9853 9852 9851 9850 9849 9848 9847 9846 9845 9844 9843 9841 9839 9837 9836 9834 9833 9831 9829 9826 9824 9822 9820 9818 9816 9814 9812 9809 9808
9783 9783 9783 9784 9784 9784 9785 9786 9786 9787 9788 9789 9790 9791 9792 9794 9796 9798 9801 9803 9804 9805 9807 9809 9810 9812 9814 9816 9817 9818 9819 9820 9823 9826 9829 9831 9833 9835 9835 9836 9836 9837 9839 9840 9841 9842 9843 9843 9843 9843 9844 9843 9843 9842 9841 9841 9840 9839 9838 9837 9836 9835 9835 9834 9833 9832 9831 9829 9827 9824 9822 9821 9819 9817 9815 9813 9811 9810 9808 9806 9803 9801 9800 9798 9797
9773 9773 9773 9773 9774 9774 9775 9776 9776 9777 9778 9779 9780 9781 9782 9783 9785 9787 9789 9791 9794 9795 9797 9798 9799 9800 9803 9804 9805 9806 9808 9809 9811 9813 9815 9817 9819 9820 9821 9822 9823 9824 9826 9827 9828 9829 9829 9830 9830 9830 9830 9830 9830 9829 9828 9828 9827 9826 9824 9824 9823 9822 9822 9821 9820 9819 9818 9817 9815 9812 9809 9807 9805 9803 9801 9800 9799 9797 9796 9793 9790 9789 9789 9788 9786
9763 9763 9763 9763 9764 9764 9765 9766 9766 9767 9768 9769 9770 9771 9772 9773 9775 9776 9778 9780 9781 9783 9784 9786 9787 9789 9790 9792 9793 9795 9797 9799 9800 9801 9802 9804 9805 9806 9808 9809 9809 9811 9812 9813 9815 9816 9816 9816 9816 9817 9817 9817 9817 9816 9815 9814 9814 9813 9812 9811 9810 9810 9809 9808 9807 9807 9806 9805 9803 9800 9797 9794 9792 9790 9789 9788 9786 9785 9783 9780 9779 9779 9778 9777 9776
9754 9754 9754 9754 9754 9755 9756 9756 9757 9758 9758 9759 9760 9761 9762 9763 9764 9765 9766 9768 9769 9770 9772 9773 9775 9777 9778 9780 9781 9784 9785 9787 9788 9789 9790 9792 9793 9794 9796 9797 9797 9798 9799 9800 9802 9803 9803 9803 9803 9803 9803 9803 9803 9802 9802 9801 9800 9800 9800 9799 9798 9798 9797 9796 9796 9795 9794 9792 9790 9788 9785 9783 9781 9779 9777 9775 9773 9772 9771 9770 9769 9769 9768 9767 9765
9745 9745 9745 9745 9745 9745 9746 9746 9747 9748 9749 9749 9750 9751 9752 9753 9755 9756 9757 9758 9759 9760 9761 9762 9764 9766 9768 9769 9771 9773 9774 9775 9776 9778 9779 9780 9781 9782 9784 9785 9785 9786 9787 9788 9789 9790 9790 9790 9790 9790 9790 9790 9790 9789 9789 9789 9788 9787 9787 9787 9786 9785 9785 9784 9784 9783 9782 9780 9778 9775 9774 9772 9770 9767 9764 9762 9761 9761 9760 9760 9760 9759 9759 9757 9756
9736 9736 9736 9736 9736 9736 9737 9737 9738 9739 9739 9740 9741 9742 9743 9744 9745 9746 9747 9748 9749 9750 9752 9753 9754 9756 9757 9759 9760 9761 9763 9764 9765 9766 9767 9768 9769 9770 9772 9773 9773 9774 9775 9775 9776 9777 9777 9777 9778 9777 9777 9777 9777 9777 9777 9776 9775 9775 9774 9774 9773 9773 9773 9772 9772 9771 9770 9768 9765 9763 9761 9760 9757 9754 9752 9750 9750 9750 9750 9749 9750 9750 9749 9748 9746
9729 9728 9728 9728 9728 9728 9728 9729 9729 9729 9730 9731 9732 9732 9733 9734 9735 9736 9737 9739 9740 9741 9742 9743 9744 9745 9746 9748 9749 9751 9753 9754 9755 9755 9756 9757 9758 9759 9760 9761 9761 9762 9763 9763 9764 9764 9765 9765 9765 9765 9765 9765 9765 9765 9765 9764 9764 9764 9763 9763 9762 9762 9761 9760 9760 9758 9757 9755 9752 9749 9747 9746 9743 9741 9740 9739 9739 9740 9740 9739 9739 9739 9738 9737 9735